Weather History for KNUQ - May, 2007

Change the Weather History Date:

Monday, May 21, 2007

  Actual Average Record
Temperature  
Mean Temperature 65 °F 63 °F  
Max Temperature 78 °F 73 °F 96 °F (2000)
Min Temperature 53 °F 54 °F 44 °F (1974)
Degree Days  
Heating Degree Days 0    
Month to date heating degree days  
Since 1 July heating degree days  
Cooling Degree Days 0    
Month to date cooling degree days  
Year to date cooling degree days  
Growing Degree Days 15 (Base 50)    
Moisture  
Dew Point 49 °F    
Average Humidity 67    
Maximum Humidity 88    
Minimum Humidity 31    
Precipitation  
Precipitation 0.00 in 0.01 in 0.14 in (1946)
Month to date precipitation 0.38  
Year to date precipitation 9.44  
Sea Level Pressure  
Sea Level Pressure 29.92 in    
Wind  
Wind Speed 9 mph (North)    
Max Wind Speed 18 mph    
Max Gust Speed 17 mph    
Visibility 10 miles    
Events Rain    
T = Trace of Precipitation, MM = Missing Value Source: NWS Daily Summary

Daily Weather History Graph

Daily Weather History Graph

Search for Another Location

Airport or City:

Trip Planner

Search our weather history database for the weather conditions in past years. The results will help you decide how hot, cold, wet, or windy it might be!

Date:

Astronomy

May. 21, 2007 Rise Set
Actual Time 5:54 AM PDT 8:15 PM PDT
Civil Twilight 5:25 AM PDT 8:44 PM PDT
Nautical Twilight 4:48 AM PDT 9:21 PM PDT
Astronomical Twilight 4:08 AM PDT 10:01 PM PDT
Moon 10:35 AM PDT (5/21) 12:42 AM PDT (5/21)
Length of Visible Light 15h 19m
Length of Day
14h 20m
Waxing Crescent, 29% of the Moon is Illuminated
May 21
Waxing Crescent
May 23
First Quarter
May 31
Full
Jun 8
Last Quarter
Jun 14
New

Hourly Weather History & Observations

Time (PDT) Temp. Dew Point Humidity Pressure Visibility Wind Dir Wind Speed Gust Speed Precip Events Conditions
12:56 AM 57.9 °F 51.1 °F 78% 29.96 in 10.0 mi WNW 8.1 mph - N/A   Scattered Clouds
1:56 AM 55.9 °F 50.0 °F 80% 29.96 in 10.0 mi North 12.7 mph - N/A   Clear
2:56 AM 55.0 °F 50.0 °F 83% 29.95 in 10.0 mi North 10.4 mph - N/A   Clear
3:40 AM 53.6 °F 50.0 °F 88% 29.94 in 10.0 mi North 8.1 mph - N/A   Scattered Clouds
3:52 AM 55.4 °F 50.0 °F 82% 29.94 in 10.0 mi North 5.8 mph - N/A   Mostly Cloudy
3:56 AM 55.0 °F 50.0 °F 83% 29.95 in 10.0 mi North 6.9 mph - N/A   Mostly Cloudy
4:19 AM 55.4 °F 50.0 °F 82% 29.93 in 10.0 mi North 6.9 mph - N/A   Overcast
4:56 AM 55.0 °F 50.0 °F 83% 29.94 in 10.0 mi NNE 6.9 mph - N/A   Overcast
5:20 AM 55.4 °F 50.0 °F 82% 29.93 in 10.0 mi NNE 5.8 mph - N/A   Overcast
5:56 AM 54.0 °F 50.0 °F 86% 29.94 in 10.0 mi NNE 4.6 mph - N/A   Overcast
6:56 AM 54.0 °F 50.0 °F 86% 29.95 in 10.0 mi North 6.9 mph - N/A   Overcast
7:56 AM 55.0 °F 50.0 °F 83% 29.96 in 10.0 mi Calm Calm - N/A   Overcast
8:40 AM 55.4 °F 50.0 °F 82% 29.95 in 10.0 mi North 4.6 mph - N/A   Scattered Clouds
8:56 AM 57.9 °F 51.1 °F 78% 29.96 in 10.0 mi North 4.6 mph - N/A   Partly Cloudy
9:56 AM 62.1 °F 51.1 °F 67% 29.95 in 10.0 mi North 4.6 mph - N/A   Clear
10:56 AM 66.0 °F 51.1 °F 59% 29.94 in 10.0 mi North 9.2 mph - N/A   Clear
11:56 AM 70.0 °F 48.9 °F 47% 29.93 in 10.0 mi NW 10.4 mph 17.3 mph N/A   Clear
12:56 PM 73.0 °F 51.1 °F 46% 29.91 in 10.0 mi North 13.8 mph - 0.00 in Rain Light Rain
1:56 PM 73.9 °F 46.9 °F 38% 29.89 in 10.0 mi NNW 16.1 mph - 0.00 in   Clear
2:56 PM 77.0 °F 44.1 °F 31% 29.88 in 10.0 mi NNW 16.1 mph - 0.00 in   Clear
3:56 PM 71.1 °F 48.9 °F 45% 29.87 in 10.0 mi NNW 18.4 mph - N/A   Clear
4:56 PM 73.9 °F 48.0 °F 40% 29.86 in 10.0 mi NNW 17.3 mph - N/A   Clear
5:56 PM 72.0 °F 48.0 °F 43% 29.86 in 10.0 mi North 17.3 mph - N/A   Clear
6:56 PM 68.0 °F 50.0 °F 52% 29.86 in 10.0 mi NNW 13.8 mph - N/A   Clear
7:56 PM 64.0 °F 48.9 °F 58% 29.87 in 10.0 mi NNW 11.5 mph - N/A   Clear
8:56 PM 60.1 °F 48.9 °F 67% 29.88 in 10.0 mi North 4.6 mph - N/A   Clear
9:56 PM 57.9 °F 48.0 °F 70% 29.88 in 10.0 mi North 6.9 mph - N/A   Clear
10:56 PM 57.0 °F 46.9 °F 69% 29.89 in 10.0 mi North 4.6 mph - N/A   Clear
11:56 PM 57.0 °F 43.0 °F 59% 29.89 in 10.0 mi NNW 5.8 mph - N/A   Clear